Regional Weather Roundup
Issued by NWS

Home | Current Version | Previous Version | Text Only | Print | Product List | Glossary Off
Versions: 1 2 3 4 5 6 7 8 9 10 11 12 13 14 15 16 17 18 19 20 21 22 23 24 25 26 27 28 29 30 31 32 33 34 35 36 37 38 39 40 41 42 43 44 45 46 47 48 49 50

000
ASUS43 KLMK 021510
RWRKY
KENTUCKY REGIONAL WEATHER ROUNDUP
NATIONAL WEATHER SERVICE LOUISVILLE KY
1100 AM EDT THU JUL 02 2015

NOTE "FAIR" INDICATES FEW OR NO CLOUDS BELOW 12,000 FEET
WITH NO SIGNIFICANT WEATHER AND/OR OBSTRUCTIONS TO VISIBILITY.

KYZ001>023-026-027-061>063-070>075-021600-
WESTERN AND SOUTH CENTRAL KENTUCKY

CITY           SKY/WX    TMP DP  RH WIND       PRES   REMARKS
PADUCAH        PTSUNNY   80  73  79 SE6       29.86R
HENDERSON      CLOUDY    73  68  83 SW3       29.87S
OWENSBORO      LGT RAIN  72  70  93 S6        29.89S
HOPKINSVILLE   PTSUNNY   74  70  88 SE7       29.89F
BOWLING GREEN  PTSUNNY   73  67  81 SW9       29.90F
GLASGOW        NOT AVBL
$$

KYZ024-025-028>034-038-045-046-053-021600-
NORTH CENTRAL KENTUCKY

CITY           SKY/WX    TMP DP  RH WIND       PRES   REMARKS
LOUISVILLE/SDF CLOUDY    73  69  87 SW7       29.89S
LOUISVILLE/LOU CLOUDY    73  70  90 S6        29.90S
FORT KNOX      CLOUDY    75  68  78 S6        29.88F
$$

KYZ035>037-039>044-047>052-055>060-089>105-021600-
NORTHEAST KENTUCKY

CITY           SKY/WX    TMP DP  RH WIND       PRES   REMARKS
LEXINGTON      LGT RAIN  68  67  96 S6        29.93S
COVINGTON      LGT RAIN  70  67  90 E5        29.91S FOG
FRANKFORT      RAIN      69  67  93 SW3       29.91R FOG
$$

KYZ054-064>069-076>088-106>120-021600-
SOUTHEAST KENTUCKY

CITY           SKY/WX    TMP DP  RH WIND       PRES   REMARKS
JACKSON        RAIN      66  65  96 CALM      29.96S VSB 1/2
LONDON         LGT RAIN  69  64  84 SW7       29.96S
SOMERSET       NOT AVBL
MIDDLESBORO    NOT AVBL
MONTICELLO     CLOUDY    72  72 100 S7        29.97F
$$




USA.gov is the U.S. government's official web portal to all federal, state and local government web resources and services.